This is the latest recevied weather packets stored in our database for station/object W5GBS-9. If no packets are shown the sender has not sent any weather packets the latest 10 day(s).
| Time | Temp. | Humidity | Pressure | Rain* | Wind** | Luminosity | Snow |
|---|---|---|---|---|---|---|---|
| 1787766570 | 36.67° C | 100% | 1015.4 hPa | 0 mm | - | - | - |
| 1787765128 | 35.56° C | 100% | 1015.5 hPa | 0 mm | - | - | - |
| 1787764408 | 35.56° C | 100% | 1015.6 hPa | 0 mm | - | - | - |
| 1787763687 | 35.56° C | 100% | 1015.7 hPa | 0 mm | - | - | - |
| 1787763687 | 35.56° C | 100% | 1015.7 hPa | 12.7 mm | - | - | - |
| 1787762246 | 34.44° C | 100% | 1015.8 hPa | 0 mm | - | - | - |
| 1787761525 | 33.89° C | 100% | 1015.8 hPa | 0 mm | - | - | - |
| 1787760804 | 33.33° C | 100% | 1015.6 hPa | 0 mm | - | - | - |
| 1787760083 | 32.78° C | 100% | 1015.7 hPa | 0 mm | - | - | - |
| 1787759363 | 32.22° C | 100% | 1015.6 hPa | 0 mm | - | - | - |
| 1787758642 | 31.67° C | 100% | 1015.6 hPa | 0 mm | - | - | - |
| 1787757920 | 31.11° C | 100% | 1015.7 hPa | 0 mm | - | - | - |
| 1787757201 | 30.56° C | 100% | 1015.4 hPa | 0 mm | - | - | - |
| 1787756479 | 30° C | 100% | 1015.5 hPa | 0 mm | - | - | - |
| 1787755758 | 29.44° C | 100% | 1015.4 hPa | 0 mm | - | - | - |
| 1787755039 | 28.89° C | 100% | 1015.3 hPa | 0 mm | - | - | - |
| 1787754318 | 28.33° C | 100% | 1015.5 hPa | 0 mm | - | - | - |
| 1787753596 | 27.78° C | 100% | 1015.6 hPa | 0 mm | - | - | - |
| 1787752918 | 27.22° C | 100% | 1015.6 hPa | 0 mm | - | - | - |
| 1787752876 | 27.22° C | 100% | 1015.6 hPa | 0 mm | - | - | - |
| 1787752155 | 27.22° C | 100% | 1015.7 hPa | 0 mm | - | - | - |
| 1787751434 | 26.67° C | 100% | 1015.5 hPa | 0 mm | - | - | - |
| 1787750713 | 26.11° C | 100% | 1015.4 hPa | 0 mm | - | - | - |
| 1787749993 | 25.56° C | 100% | 1015 hPa | 0 mm | - | - | - |
| 1787749273 | 25° C | 100% | 1014.9 hPa | 0 mm | - | - | - |
* Rain latest hour (hover to see other rain measurements)
** Current wind speed in m/s (hover to see current wind gust speed)